Arlington, WA
on Sunday, December 30, 2012

Sunday
Previous Day Next Day
Daily Summary
 ActualAverageRecord
Temperature
Mean Temperature °F °F  
Max Temperature 37°F 41°F 55°F (1976)
Min Temperature 30°F 24°F 10°F (1978)
Degree Days
Heating Degree Days 32    
Moisture
Dew Point 31°F   
Average Humidity 91    
Maximum Humidity 100    
Minimum Humidity 81    
Precipitation
Precipitation 0.00 in in in ()
Wind
Wind Speed 0 mph   
Max Wind Speed 0 mph   
Max Gust Speed mph   
Visibility 5 miles   
Events     
Averages and records for this station are not official NWS values.
Key: T is trace of precipitation, MM is missing value
Source: NWS Daily Summary
Seasonal Weather Averages
Time(PST)TemperatureDew PointHumidity Pressure Visibility Wind DirectionWind SpeedGust SpeedPrecipitationEvents Conditions
12:15 AM 33.8°F 30.2°F 87% 30.25 in 0.2 miles Calm Calm - N/A   Overcast
12:35 AM 33.8°F 32.0°F 93% 30.25 in 0.2 miles Calm Calm - N/A   Overcast
12:55 AM 32.0°F 30.2°F 93% 30.25 in 0.2 miles Calm Calm - N/A   Overcast
1:15 AM 32.0°F 30.2°F 93% 30.25 in 0.2 miles Calm Calm - N/A   Overcast
1:35 AM 33.8°F 30.2°F 87% 30.26 in 0.2 miles Calm Calm - N/A   Overcast
1:55 AM 33.8°F 32.0°F 93% 30.27 in 0.2 miles Calm Calm - N/A   Overcast
2:15 AM 33.8°F 32.0°F 93% 30.27 in 0.2 miles Calm Calm - N/A   Overcast
2:35 AM 33.8°F 30.2°F 87% 30.27 in 0.2 miles Calm Calm - N/A   Overcast
2:55 AM 33.8°F 30.2°F 87% 30.27 in 0.2 miles Calm Calm - N/A   Overcast
3:15 AM 32.0°F 30.2°F 93% 30.27 in 0.5 miles Calm Calm - N/A   Overcast
3:35 AM 32.0°F 30.2°F 93% 30.28 in 0.5 miles Calm Calm - N/A   Overcast
4:15 AM 32.0°F 30.2°F 93% 30.29 in 0.2 miles Calm Calm - N/A   Overcast
4:35 AM 30.2°F 28.4°F 93% 30.29 in 0.2 miles Calm Calm - N/A   Overcast
4:55 AM 30.2°F 28.4°F 93% 30.29 in 0.5 miles Calm Calm - N/A   Overcast
5:15 AM 32.0°F 30.2°F 93% 30.29 in 1.2 miles Calm Calm - N/A   Overcast
5:35 AM 32.0°F 30.2°F 93% 30.29 in 0.2 miles Calm Calm - N/A   Overcast
5:55 AM 32.0°F 30.2°F 93% 30.29 in 0.2 miles Calm Calm - N/A   Overcast
6:15 AM 30.2°F 30.2°F 100% 30.30 in 0.2 miles Calm Calm - N/A   Overcast
6:35 AM 30.2°F 28.4°F 93% 30.30 in 0.2 miles Calm Calm - N/A   Overcast
6:55 AM 30.2°F 28.4°F 93% 30.30 in 0.2 miles Calm Calm - N/A   Overcast
7:15 AM 30.2°F 28.4°F 93% 30.30 in 0.2 miles Calm Calm - N/A   Overcast
7:35 AM 30.2°F 28.4°F 93% 30.30 in 0.2 miles Calm Calm - N/A   Overcast
7:55 AM 30.2°F 28.4°F 93% 30.31 in 0.8 miles Calm Calm - N/A   Overcast
8:15 AM 32.0°F 30.2°F 93% 30.32 in 0.2 miles Calm Calm - N/A   Overcast
8:35 AM 30.2°F 28.4°F 93% 30.33 in 0.5 miles Calm Calm - N/A   Overcast
8:55 AM 30.2°F 28.4°F 93% 30.33 in 3.0 miles Calm Calm - N/A   Overcast
9:15 AM 30.2°F 28.4°F 93% 30.33 in 5.0 miles Calm Calm - N/A   Overcast
9:35 AM 32.0°F 30.2°F 93% 30.33 in 10.0 miles Calm Calm - N/A   Overcast
9:55 AM 32.0°F 30.2°F 93% 30.34 in 10.0 miles Calm Calm - N/A   Overcast
10:15 AM 33.8°F 32.0°F 93% 30.35 in 10.0 miles Calm Calm - N/A   Overcast
10:35 AM 33.8°F 30.2°F 87% 30.34 in 10.0 miles Calm Calm - N/A   Overcast
10:55 AM 33.8°F 32.0°F 93% 30.34 in 10.0 miles Calm Calm - N/A   Overcast
11:15 AM 33.8°F 32.0°F 93% 30.34 in 10.0 miles Calm Calm - N/A   Overcast
11:35 AM 33.8°F 32.0°F 93% 30.34 in 10.0 miles Calm Calm - N/A   Overcast
11:55 AM 35.6°F 33.8°F 93% 30.34 in 10.0 miles Calm Calm - N/A   Overcast
12:15 PM 35.6°F 33.8°F 93% 30.33 in 10.0 miles Calm Calm - N/A   Overcast
12:35 PM 35.6°F 33.8°F 93% 30.33 in 10.0 miles Calm Calm - N/A   Overcast
12:55 PM 35.6°F 33.8°F 93% 30.33 in 10.0 miles Calm Calm - N/A   Overcast
1:15 PM 35.6°F 33.8°F 93% 30.33 in 10.0 miles Calm Calm - N/A   Overcast
1:35 PM 35.6°F 33.8°F 93% 30.33 in 10.0 miles Calm Calm - N/A   Overcast
1:55 PM 35.6°F 33.8°F 93% 30.33 in 10.0 miles Calm Calm - N/A   Overcast
2:15 PM 37.4°F 33.8°F 87% 30.33 in 10.0 miles Calm Calm - N/A   Overcast
2:35 PM 35.6°F 33.8°F 93% 30.32 in 10.0 miles Calm Calm - N/A   Overcast
2:55 PM 35.6°F 33.8°F 93% 30.32 in 10.0 miles Calm Calm - N/A   Overcast
3:15 PM 35.6°F 32.0°F 87% 30.32 in 10.0 miles Calm Calm - N/A   Overcast
3:35 PM 35.6°F 32.0°F 87% 30.32 in 10.0 miles Calm Calm - N/A   Overcast
3:55 PM 35.6°F 32.0°F 87% 30.32 in 10.0 miles Calm Calm - N/A   Overcast
4:15 PM 35.6°F 32.0°F 87% 30.32 in 10.0 miles Calm Calm - N/A   Overcast
4:35 PM 35.6°F 32.0°F 87% 30.32 in 10.0 miles Calm Calm - N/A   Overcast
4:55 PM 35.6°F 32.0°F 87% 30.32 in 10.0 miles Calm Calm - N/A   Overcast
5:15 PM 35.6°F 32.0°F 87% 30.32 in 10.0 miles Calm Calm - N/A   Overcast
5:35 PM 35.6°F 32.0°F 87% 30.31 in 10.0 miles Calm Calm - N/A   Overcast
5:55 PM 33.8°F 32.0°F 93% 30.31 in 10.0 miles Calm Calm - N/A   Overcast
6:15 PM 35.6°F 30.2°F 81% 30.30 in 10.0 miles Calm Calm - N/A   Overcast
6:35 PM 35.6°F 32.0°F 87% 30.30 in 10.0 miles Calm Calm - N/A   Overcast
6:55 PM 33.8°F 32.0°F 93% 30.30 in 10.0 miles Calm Calm - N/A   Overcast
7:15 PM 33.8°F 30.2°F 87% 30.30 in 10.0 miles Calm Calm - N/A   Overcast
7:55 PM 33.8°F 32.0°F 93% 30.30 in 3.0 miles Calm Calm - N/A   Overcast
8:15 PM 33.8°F 32.0°F 93% 30.31 in 0.5 miles Calm Calm - N/A   Overcast
8:35 PM 33.8°F 30.2°F 87% 30.30 in 0.8 miles Calm Calm - N/A   Overcast
8:55 PM 32.0°F 30.2°F 93% 30.30 in 0.5 miles Calm Calm - N/A   Overcast
9:15 PM 32.0°F 30.2°F 93% 30.32 in 1.0 miles Calm Calm - N/A   Overcast
9:35 PM 32.0°F 30.2°F 93% 30.31 in 0.5 miles Calm Calm - N/A   Overcast
9:55 PM 30.2°F 28.4°F 93% 30.31 in 0.8 miles Calm Calm - N/A   Overcast
10:15 PM 30.2°F 28.4°F 93% 30.32 in 0.8 miles Calm Calm - N/A   Overcast
10:35 PM 30.2°F 28.4°F 93% 30.32 in 0.5 miles Calm Calm - N/A   Overcast
10:55 PM 30.2°F 28.4°F 93% 30.32 in 0.5 miles Calm Calm - N/A   Overcast
11:15 PM 30.2°F 28.4°F 93% 30.32 in 0.2 miles Calm Calm - N/A   Overcast
11:35 PM 30.2°F 28.4°F 93% 30.32 in 0.2 miles Calm Calm - N/A   Overcast
Moon Phase
Dec. 30 Jan. 04 Jan. 11 Jan. 18 Jan. 26
Sunrise:07:59 AM (PST) Moon Rise:07:13 PM (PST)12/30
Sunset:04:24 PM (PST) Moon Set:08:59 AM (PST)12/30

Copyright © 2014 The Weather Underground, Inc.